CZ-6A DEB, 54538

Orbit data source: Space-Track

CZ-6A DEB, 54538 is space debris in SSO originally from a launch on Fri, 11 Nov 2022 UTC launched from the Taiyaun Space Center, China (TSC). Debris objects in space refer to the collection of defunct objects orbiting the Earth. Examples of debris include non-operational satellites, rocket bodies, and fragments generated from explosions, collisions, or faulty payload assembly.

Loading next visibility...
Identifier
54538, 2022-151KN
Orbit
SSO
Country
Flag of CNCN / PRC
Related business
Manufacturer
SAST
Mission
Spacecraft
Bus & Motor
Unknown
Mass
Unknown
Launch date (UTC)
2022-11-11 (3 years ago)
Launch vehicle
Unknown
Launch site
Taiyaun Space Center, China (TSC)
Object type
Payload
Rocket body
Debris
Shape & HBR
Unknown shape, 0.1 m
Radar Cross Section
Small (<0.1 m²)

Expand to show TLE details & history
Last TLE update: 21 hours ago

TLE from 21 hours ago
0 CZ-6A DEB
1 54538U 22151KN  25349.89914867  .00000413  00000-0  31479-3 0  9996
2 54538  98.8402 316.1903 0120148 220.0958 139.1291 13.95667180157288
Epoch: 2025-12-15T21:34Z
TLE epoch observation values (Epoch: 2025-12-15T21:34:46.445Z)
Latitude
0.00001°
Longitude
-92.29432°
Altitude
978.377 km
Speed
7.329 km/s
True Right ascension
21h 04m 45s
True Declination
0° 00' 00"
Sunlit
Object was in daylight at epoch
Visualization orbit readout
Latitude
Unknown
Longitude
Unknown
Altitude
Unknown
Speed
Unknown
Apparent Right ascension
Unknown
Apparent Declination
Unknown
Sunlit
N/A
Visualization observer readout
Local Sidereal Time
17:43:42
Azimuth
Unknown
Elevation
Unknown
Doppler factor
Unknown
Orbital elements
Apogee altitude
993.552 km
Perigee altitude
818.517 km
Semi-major axis
7,284.172 km
Eccentricity
0.01201
Inclination
98.8402°
RAAN
316.1903°
Arg. of periapsis
220.0958°
True anomaly
140.01986°
Mean anomaly
139.1291°
Eccentric anomaly
139.57549°
Mean motion
3.49119 °/min
Orbital period
103.12 mins
BSTAR
0.00031479
Loading maneuver chart data...
Computing Atmospheric mass density...
Loading historical data...
Loading historical data...
Loading historical data...
Loading historical data...
Loading historical data...
Loading historical data...
Loading historical data...

Documentation

Showing up to 5 results
|